When you browse on this site, cookies collect data to enhance your experience and personalize the content and advertising you see.
Visit our Privacy Policy to learn more. By continuing to use the site, you agree to this use of cookies and data.

Stündliche Wetter Zatemne

Heute, 4 August, Dienstag

Zeit Temperatur Niederschläge Wind Luftdruck Luftfeuchtigkeit
00:00 +17°C° 0 mm 3 m/S 729 mmHg 84%
01:00 +17°C° 0 mm 2 m/S 729 mmHg 83%
02:00 +16°C° 0 mm 2 m/S 729 mmHg 84%
03:00 +16°C° 0 mm 2 m/S 729 mmHg 84%
04:00 +16°C° 0 mm 2 m/S 728 mmHg 85%
05:00 +15°C° 0 mm 2 m/S 728 mmHg 85%
06:00 +17°C° 0 mm 3 m/S 728 mmHg 82%
07:00 +19°C° 0 mm 3 m/S 728 mmHg 79%
08:00 +20°C° 0 mm 4 m/S 729 mmHg 76%
09:00 +22°C° 0 mm 5 m/S 729 mmHg 72%
10:00 +23°C° 0 mm 5 m/S 729 mmHg 69%
11:00 +24°C° 0 mm 6 m/S 729 mmHg 65%
12:00 +26°C° 0 mm 6 m/S 729 mmHg 64%
13:00 +26°C° 0 mm 7 m/S 728 mmHg 64%
14:00 +26°C° 0 mm 7 m/S 728 mmHg 63%
15:00 +26°C° 0 mm 6 m/S 728 mmHg 64%
16:00 +26°C° 0 mm 6 m/S 729 mmHg 66%
17:00 +26°C° 0 mm 5 m/S 729 mmHg 67%
18:00 +25°C° 0.4 mm 4 m/S 729 mmHg 73%
19:00 +22°C° 0.4 mm 4 m/S 729 mmHg 78%
20:00 +21°C° 0.4 mm 3 m/S 729 mmHg 84%
21:00 +20°C° 0.5 mm 3 m/S 729 mmHg 85%
22:00 +19°C° 0.5 mm 2 m/S 730 mmHg 86%
23:00 +18°C° 0.5 mm 2 m/S 730 mmHg 87%

Morgen, 5 August, Mittwoch

Zeit Temperatur Niederschläge Wind Luftdruck Luftfeuchtigkeit
00:00 +18°C° 0 mm 2 m/S 731 mmHg 89%
01:00 +18°C° 0 mm 2 m/S 731 mmHg 90%
02:00 +18°C° 0 mm 1 m/S 731 mmHg 92%
03:00 +17°C° 0.2 mm 2 m/S 731 mmHg 93%
04:00 +17°C° 0.2 mm 2 m/S 732 mmHg 95%
05:00 +17°C° 0.2 mm 3 m/S 732 mmHg 96%
06:00 +18°C° 0.1 mm 3 m/S 732 mmHg 96%
07:00 +18°C° 0.1 mm 2 m/S 732 mmHg 96%
08:00 +19°C° 0.1 mm 2 m/S 733 mmHg 96%
09:00 +19°C° 0 mm 2 m/S 733 mmHg 94%
10:00 +20°C° 0 mm 2 m/S 734 mmHg 92%
11:00 +20°C° 0 mm 2 m/S 734 mmHg 90%
12:00 +21°C° 0.1 mm 2 m/S 734 mmHg 86%
13:00 +23°C° 0.1 mm 2 m/S 734 mmHg 82%
14:00 +24°C° 0.1 mm 2 m/S 734 mmHg 78%
15:00 +24°C° 0 mm 3 m/S 734 mmHg 76%
16:00 +25°C° 0 mm 3 m/S 735 mmHg 74%
17:00 +26°C° 0 mm 3 m/S 735 mmHg 73%
18:00 +24°C° 0 mm 3 m/S 735 mmHg 78%
19:00 +22°C° 0 mm 3 m/S 735 mmHg 83%
20:00 +20°C° 0 mm 3 m/S 735 mmHg 88%
21:00 +19°C° 0 mm 3 m/S 735 mmHg 89%
22:00 +19°C° 0 mm 2 m/S 735 mmHg 91%
23:00 +18°C° 0 mm 2 m/S 736 mmHg 92%

übermorgen, 6 August, Donnerstag

Zeit Temperatur Niederschläge Wind Luftdruck Luftfeuchtigkeit
00:00 +18°C° 0 mm 2 m/S 736 mmHg 90%
01:00 +17°C° 0 mm 2 m/S 736 mmHg 89%
02:00 +18°C° 0 mm 1 m/S 736 mmHg 87%
03:00 +16°C° 0 mm 1 m/S 736 mmHg 87%
04:00 +16°C° 0 mm 1 m/S 736 mmHg 87%
05:00 +15°C° 0 mm 1 m/S 736 mmHg 87%
06:00 +17°C° 0 mm 2 m/S 736 mmHg 83%
07:00 +19°C° 0 mm 2 m/S 737 mmHg 79%
08:00 +20°C° 0 mm 2 m/S 737 mmHg 74%
09:00 +23°C° 0 mm 2 m/S 737 mmHg 70%
10:00 +25°C° 0 mm 2 m/S 738 mmHg 65%
11:00 +26°C° 0 mm 2 m/S 738 mmHg 60%
12:00 +27°C° 0 mm 2 m/S 738 mmHg 58%
13:00 +28°C° 0 mm 3 m/S 738 mmHg 55%
14:00 +29°C° 0 mm 3 m/S 738 mmHg 52%
15:00 +28°C° 0 mm 3 m/S 738 mmHg 56%
16:00 +28°C° 0 mm 3 m/S 738 mmHg 60%
17:00 +28°C° 0 mm 3 m/S 738 mmHg 64%
18:00 +26°C° 0 mm 3 m/S 738 mmHg 67%
19:00 +24°C° 0 mm 3 m/S 738 mmHg 70%
20:00 +22°C° 0 mm 3 m/S 738 mmHg 73%
21:00 +21°C° 0 mm 2 m/S 738 mmHg 73%
22:00 +20°C° 0 mm 2 m/S 738 mmHg 73%
23:00 +20°C° 0 mm 2 m/S 738 mmHg 74%

7 August, Freitag

Zeit Temperatur Niederschläge Wind Luftdruck Luftfeuchtigkeit
00:00 +19°C° 0 mm 2 m/S 738 mmHg 76%
01:00 +19°C° 0 mm 2 m/S 738 mmHg 77%
02:00 +19°C° 0 mm 1 m/S 738 mmHg 79%
03:00 +19°C° 0 mm 1 m/S 738 mmHg 81%
04:00 +18°C° 0 mm 1 m/S 739 mmHg 83%
05:00 +18°C° 0 mm 1 m/S 739 mmHg 84%
06:00 +20°C° 0 mm 1 m/S 739 mmHg 81%
07:00 +21°C° 0 mm 1 m/S 739 mmHg 77%
08:00 +23°C° 0 mm 1 m/S 739 mmHg 73%
09:00 +24°C° 0 mm 2 m/S 739 mmHg 69%
10:00 +26°C° 0 mm 2 m/S 740 mmHg 65%
11:00 +27°C° 0 mm 3 m/S 740 mmHg 61%
12:00 +27°C° 0 mm 3 m/S 739 mmHg 60%
13:00 +28°C° 0 mm 3 m/S 739 mmHg 59%
14:00 +28°C° 0 mm 4 m/S 739 mmHg 57%
15:00 +28°C° 0 mm 3 m/S 739 mmHg 59%
16:00 +28°C° 0 mm 3 m/S 738 mmHg 61%
17:00 +28°C° 0 mm 3 m/S 738 mmHg 62%
18:00 +26°C° 0 mm 3 m/S 738 mmHg 70%
19:00 +24°C° 0 mm 2 m/S 738 mmHg 77%
20:00 +21°C° 0 mm 2 m/S 738 mmHg 84%
21:00 +21°C° 0 mm 2 m/S 738 mmHg 87%
22:00 +20°C° 0 mm 2 m/S 738 mmHg 89%
23:00 +19°C° 0 mm 2 m/S 738 mmHg 91%

8 August, Samstag

Zeit Temperatur Niederschläge Wind Luftdruck Luftfeuchtigkeit
00:00 +19°C° 0 mm 2 m/S 738 mmHg 91%
01:00 +19°C° 0 mm 2 m/S 738 mmHg 91%
02:00 +18°C° 0 mm 2 m/S 738 mmHg 91%
03:00 +18°C° 0 mm 2 m/S 738 mmHg 90%
04:00 +17°C° 0 mm 2 m/S 738 mmHg 89%
05:00 +17°C° 0 mm 2 m/S 738 mmHg 89%
06:00 +18°C° 0 mm 2 m/S 738 mmHg 86%
07:00 +19°C° 0 mm 2 m/S 738 mmHg 83%
08:00 +20°C° 0 mm 2 m/S 738 mmHg 80%
09:00 +22°C° 0 mm 3 m/S 738 mmHg 75%
10:00 +24°C° 0 mm 3 m/S 738 mmHg 70%
11:00 +25°C° 0 mm 4 m/S 738 mmHg 65%
12:00 +26°C° 0 mm 4 m/S 738 mmHg 63%
13:00 +26°C° 0 mm 4 m/S 737 mmHg 61%
14:00 +27°C° 0 mm 4 m/S 737 mmHg 59%
15:00 +27°C° 0 mm 3 m/S 737 mmHg 61%
16:00 +26°C° 0 mm 3 m/S 736 mmHg 62%
17:00 +26°C° 0 mm 3 m/S 736 mmHg 63%
18:00 +25°C° 0 mm 3 m/S 736 mmHg 69%
19:00 +22°C° 0 mm 3 m/S 736 mmHg 76%
20:00 +20°C° 0 mm 2 m/S 736 mmHg 82%
21:00 +19°C° 0 mm 2 m/S 736 mmHg 83%
22:00 +19°C° 0 mm 2 m/S 736 mmHg 85%
23:00 +19°C° 0 mm 1 m/S 736 mmHg 86%

9 August, Sonntag

Zeit Temperatur Niederschläge Wind Luftdruck Luftfeuchtigkeit
00:00 +19°C° 0 mm 1 m/S 735 mmHg 87%
01:00 +18°C° 0 mm 1 m/S 735 mmHg 87%
02:00 +18°C° 0 mm 1 m/S 735 mmHg 88%
03:00 +18°C° 0 mm 1 m/S 735 mmHg 88%
04:00 +16°C° 0 mm 0 m/S 735 mmHg 89%
05:00 +15°C° 0 mm 0 m/S 735 mmHg 90%
06:00 +17°C° 0 mm 0 m/S 735 mmHg 86%
07:00 +20°C° 0 mm 1 m/S 735 mmHg 82%
08:00 +21°C° 0 mm 1 m/S 735 mmHg 79%
09:00 +22°C° 0.2 mm 1 m/S 735 mmHg 74%
10:00 +23°C° 0.2 mm 1 m/S 735 mmHg 70%
11:00 +25°C° 0.2 mm 1 m/S 735 mmHg 65%
12:00 +25°C° 0.1 mm 1 m/S 735 mmHg 62%
13:00 +26°C° 0.1 mm 1 m/S 734 mmHg 59%
14:00 +26°C° 0.1 mm 1 m/S 734 mmHg 56%
15:00 +26°C° 0.1 mm 1 m/S 734 mmHg 58%
16:00 +26°C° 0.1 mm 1 m/S 734 mmHg 59%
17:00 +26°C° 0.1 mm 1 m/S 733 mmHg 60%
18:00 +24°C° 0.1 mm 1 m/S 733 mmHg 66%
19:00 +23°C° 0.1 mm 1 m/S 733 mmHg 72%
20:00 +21°C° 0.1 mm 1 m/S 733 mmHg 78%
21:00 +20°C° 0.4 mm 1 m/S 733 mmHg 81%
22:00 +19°C° 0.4 mm 1 m/S 733 mmHg 84%
23:00 +19°C° 0.4 mm 1 m/S 733 mmHg 87%
Mehr zeigen